Погода в Спицевке

Россия / Ставропольский край     45°07′15″N   42°30′25″E
темп.,
°C
ветер,
м/с
пор.,
м/с
влажн.,
%
обл.,
%
осадки,
мм/ч
давл.,
гПа
погр.,
м
15 мая, сб
сб1500:00+17ю22825 0.0 101111
03:00+16юз118632 0.0 101111
06:00+18юз118617 0.0 101234
09:00+23зсз44730 0.0 1013621
12:00+25сз44665 0.0 1013942
15:00+27с44605 0.0 10121340
18:00+25с35725 0.0 1012229
21:00+21ссз2284100 0.0 101211
16 мая, вс
вс1600:00+19ссв2290100 0.0 101113
03:00+18всв1190100 0.0 101011
06:00+18вюв118397 0.0 101037
09:00+22вюв336216 0.0 1009468
12:00+25в56596 0.0 1008934
15:00+26в67435 0.0 10071091
18:00+24вюв496025 0.0 1005282
21:00+21вюв61443100 0.0 1005361
17 мая, пн
пн1700:00+17вюв4104988 0.0 1005225
03:00+15вюв2253100 0.0 100530
06:00+15юв226275 0.0 100546
09:00+21ююв23526 0.0 1006389
12:00+26св11484 0.0 1006977
15:00+27ссз325099 0.0 10071491
18:00+20зсз71282100 3.0 1008433
21:00+17зсз4990100 7.1 1010250
18 мая, вт
вт1800:00+16зсз7129389 3.8 1010390
03:00+15зсз61397100 5.9 1011584
06:00+14зсз61193100 0.6 1013542
09:00+16зсз6882100 0.6 1013576
12:00+21зсз676597 0.0 10131203
15:00+22сз665945 0.0 10131654
18:00+19сз46736 0.1 1014432
21:00+15юз228498 0.1 101511
19 мая, ср
ср1900:00+15зюз2286100 0.0 101512
03:00+13юз11880 0.0 101510
06:00+15ююз11845 0.0 101648
09:00+20юв22650 0.0 1015655
12:00+24юв33543 0.0 10141424
15:00+25вюв445121 0.0 10131506
18:00+23юв486740 0.0 1013333
21:00+18вюв397610 0.0 1013162